Location: Albany
(35.0000°S, 118.0000°E)
Time: 01:58:21
(UTC-04:00)

Atlas Centaur 2 - Visible Passes

Search period start: 24 May 2016 00:00
Search period end: 03 June 2016 00:00
Orbit: 459 x 1316 km, 30.4° (Epoch: 22 May)

Date Brightness Start Highest point End Pass type
(mag) Time Alt. Az. Time Alt. Az. Time Alt. Az.
28 May 4.7 17:35:36 10° N 17:38:21 14° NNE 17:40:50 10° NE visible
29 May 4.4 17:31:26 10° NNW 17:35:27 18° NNE 17:38:56 10° ENE visible
30 May 4.1 17:27:39 10° NNW 17:32:32 23° NNE 17:36:40 10° ENE visible
31 May 4.9 15:40:47 12° NNE 15:40:47 12° NNE 15:43:06 10° NE visible
31 May 3.8 17:24:03 10° NW 17:29:38 29° NNE 17:34:13 10° ENE visible
01 Jun 4.8 15:38:43 16° NE 15:38:43 16° NE 15:41:37 10° ENE visible
01 Jun 3.6 17:21:25 13° NW 17:26:42 35° NNE 17:31:39 10° E visible
02 Jun 4.6 15:36:29 19° NE 15:36:29 19° NE 15:39:31 10° ENE visible
02 Jun 3.3 17:19:11 18° NW 17:23:46 41° NNE 17:29:01 10° E visible
